EW7186 Weather Reports


Display with metric or nautical units.
time (UTC)temp
F
wind
direction
speed
MPH
gust
MPH
rain 1hr
in
rain 24hr
in
rain mn
in
humidity
%
barometer
mb
20260508161605 65 47 8.0 9.0 0.00 0.02 0.00 60 1017.5
20260508160057 65 72 4.0 8.0 0.00 0.02 0.00 59 1017.6
20260508154558 65 49 0.0 7.0 0.00 0.05 0.00 58 1017.8
20260508153055 66 0 0.0 0.0 0.00 0.05 0.00 60 1018.0
20260508151606 64 0 0.0 8.0 0.00 0.05 0.00 62 1017.8
20260508150056 64 0 0.0 8.0 0.00 0.05 0.00 62 1017.8
20260508144553 64 93 4.0 8.0 0.00 0.73 0.00 63 1017.9
20260508143051 63 0 3.0 9.0 0.00 0.73 0.00 63 1018.0
20260508141550 63 82 4.0 8.0 0.00 0.73 0.00 61 1017.9
20260508140052 63 63 4.0 11.0 0.00 0.73 0.00 62 1017.8
20260508134558 63 57 7.0 12.0 0.00 0.78 0.00 64 1017.9
20260508133102 63 65 9.0 14.0 0.00 0.78 0.00 65 1017.6
20260508131555 62 60 7.0 14.0 0.00 0.78 0.00 71 1017.7
20260508130053 62 65 9.0 13.0 0.00 0.78 0.00 73 1017.3
20260508124554 62 64 8.0 11.0 0.00 0.78 0.00 75 1017.1
20260508123057 61 64 10.0 14.0 0.00 0.78 0.00 73 1016.9
20260508121554 61 73 7.0 9.0 0.00 0.78 0.00 79 1016.9
20260508120052 61 63 7.0 9.0 0.00 0.78 0.00 82 1016.7
20260508114558 61 58 5.0 7.0 0.00 0.81 0.00 85 1016.6
20260508113052 61 0 0.0 4.0 0.00 0.81 0.00 87 1016.3
20260508111602 60 0 0.0 0.0 0.00 0.81 0.00 89 1015.9
20260508104550 59 39 1.0 4.0 0.00 1.28 0.00 90 1015.6
20260508103052 59 360 1.0 3.0 0.00 1.28 0.00 90 1015.3
20260508101552 59 28 0.0 4.0 0.00 1.28 0.00 90 1014.9
20260508100100 59 53 0.0 3.0 0.00 1.28 0.00 90 1014.7
20260508094607 59 19 2.0 4.0 0.00 1.30 0.00 90 1014.5
20260508093055 59 0 1.0 4.0 0.00 1.30 0.00 90 1014.6
20260508091549 60 0 2.0 4.0 0.00 1.30 0.00 89 1014.4
20260508090054 60 54 3.0 5.0 0.00 1.30 0.00 88 1014.3
20260508084554 60 0 2.0 5.0 0.00 1.31 0.00 88 1014.3
20260508083056 61 0 0.0 5.0 0.00 1.31 0.00 87 1014.2
20260508081605 61 41 0.0 5.0 0.00 1.31 0.00 87 1014.1
20260508080052 61 0 0.0 5.0 0.00 1.31 0.00 86 1014.0
20260508074548 62 62 4.0 9.0 0.00 1.31 0.00 85 1013.9
20260508073054 62 52 7.0 10.0 0.00 1.31 0.00 83 1013.9
20260508071556 62 70 6.0 10.0 0.00 1.31 0.00 82 1013.8
20260508064550 62 62 7.0 10.0 0.00 1.31 0.00 83 1013.5
20260508063048 63 70 5.0 8.0 0.00 1.31 0.00 85 1013.6
20260508061549 63 65 2.0 7.0 0.00 1.31 0.00 84 1013.8
20260508060052 63 65 6.0 10.0 0.00 1.31 0.00 84 1013.8
20260508054557 63 60 7.0 10.0 0.00 1.31 0.00 82 1014.0
20260508053057 64 68 8.0 11.0 0.00 1.31 0.00 82 1013.9
20260508051550 64 50 7.0 9.0 0.00 1.31 0.00 80 1014.0
20260508050050 64 31 6.0 11.0 0.00 1.31 0.00 79 1013.8
20260508044603 65 66 10.0 14.0 0.00 1.41 0.00 79 1013.6
20260508043104 65 69 12.0 14.0 0.00 1.41 0.00 78 1013.2
20260508041554 66 62 10.0 15.0 0.00 1.41 0.00 79 1013.1
20260508040101 67 63 10.0 12.0 0.00 1.41 0.00 79 1013.0
20260508034555 67 0 4.0 8.0 0.00 1.58 1.41 79 1013.2
20260508033052 67 0 2.0 7.0 0.00 1.58 1.41 79 1013.1
20260508031551 67 0 0.0 1.0 0.00 1.58 1.41 79 1012.9
20260508030100 67 0 0.0 2.0 0.00 1.58 1.41 79 1012.6
20260508024550 68 0 0.0 3.0 0.00 1.96 1.41 79 1012.5
20260508023054 68 297 0.0 4.0 0.00 1.96 1.41 80 1012.2
20260508021551 68 0 0.0 0.0 0.00 1.96 1.41 79 1012.0
20260508020050 68 0 0.0 1.0 0.00 1.96 1.41 79 1011.5
20260508014551 69 0 0.0 0.0 0.00 1.96 1.41 79 1011.3
20260508013053 69 0 0.0 2.0 0.00 1.96 1.41 79 1010.9
20260508011600 70 0 0.0 0.0 0.00 1.96 1.41 77 1010.7
20260508010057 71 0 0.0 1.0 0.00 1.96 1.41 76 1010.3
20260508004553 71 0 0.0 2.0 0.00 1.96 1.41 74 1010.0
20260508003052 72 0 0.0 2.0 0.00 1.96 1.41 73 1009.7
20260508001547 73 0 0.0 4.0 0.00 1.96 1.41 71 1009.3
20260508000050 74 0 0.0 4.0 0.00 1.96 1.41 69 1008.8
20260507234600 74 0 1.0 6.0 0.00 1.96 1.41 67 1008.7
20260507233054 75 229 1.0 7.0 0.00 1.96 1.41 67 1008.5
20260507231553 76 0 3.0 7.0 0.00 1.96 1.41 66 1008.5
20260507230057 77 0 3.0 8.0 0.00 1.96 1.41 66 1008.4
20260507224551 77 274 3.0 7.0 0.00 1.96 1.41 66 1008.5
20260507223059 78 247 2.0 10.0 0.00 1.96 1.41 66 1008.4
20260507221555 77 244 2.0 6.0 0.00 1.96 1.41 69 1008.1
20260507220055 77 264 2.0 8.0 0.00 1.96 1.41 69 1008.1
20260507214559 77 245 4.0 8.0 0.00 1.96 1.41 68 1008.2
20260507213052 77 255 0.0 6.0 0.00 1.96 1.41 71 1008.1
20260507211552 77 231 2.0 6.0 0.00 1.96 1.41 71 1008.2
20260507210051 77 214 2.0 7.0 0.00 1.96 1.41 72 1008.2
20260507204557 76 206 2.0 5.0 0.00 1.96 1.41 73 1008.2
20260507203102 75 252 1.0 6.0 0.00 1.96 1.41 76 1008.6
20260507201550 74 0 0.0 3.0 0.00 1.96 1.41 77 1008.8
20260507200054 74 0 0.0 3.0 0.00 1.96 1.41 78 1008.9
20260507194556 75 0 0.0 6.0 0.00 1.96 1.41 78 1008.7
20260507193058 75 280 0.0 7.0 0.00 1.96 1.41 78 1008.6
20260507191554 75 333 0.0 4.0 0.00 1.96 1.41 80 1008.5
20260507190054 75 237 1.0 5.0 0.00 1.96 1.41 80 1008.5
20260507184554 74 0 2.0 5.0 0.00 1.96 1.41 81 1008.4
20260507183103 73 0 0.0 4.0 0.00 1.96 1.41 82 1008.4
20260507181551 73 0 0.0 4.0 0.00 1.96 1.41 86 1008.7
20260507180056 72 0 0.0 4.0 0.00 1.96 1.41 88 1008.7
20260507174604 72 0 0.0 4.0 0.00 1.96 1.41 87 1008.5
20260507173101 72 261 2.0 4.0 0.00 1.96 1.41 88 1008.5
20260507171611 71 0 0.0 0.0 0.02 1.96 1.41 90 1008.9
20260507170058 71 0 0.0 3.0 0.02 1.96 1.41 91 1009.2
20260507164606 70 0 0.0 0.0 0.02 1.96 1.41 87 1009.3
20260507163055 69 0 0.0 3.0 0.03 1.96 1.41 88 1009.5